Regional Weather Roundup
Issued by NWS

Home | Current Version | Previous Version | Graphics & Text | Print | Product List | Glossary On
Versions: 1 2 3 4 5 6 7 8 9 10 11 12 13 14 15 16 17 18 19 20 21 22 23 24 25 26 27 28 29 30 31 32 33 34 35 36 37 38 39 40 41 42 43 44 45 46 47 48 49 50
000
ASUS43 KLOT 262208
RWRIL

ILLINOIS REGIONAL WEATHER ROUNDUP
NATIONAL WEATHER SERVICE CHICAGO/ROMEOVILLE IL
500 PM CDT TUE JUL 26 2016

NOTE: "FAIR" INDICATES FEW OR NO CLOUDS BELOW 12,000 FEET WITH NO
SIGNIFICANT WEATHER AND/OR OBSTRUCTIONS TO VISIBILITY.

* THESE STATIONS ARE NOT UNDER NWS QUALITY CONTROL. THEY ALSO MAY NOT
  REPORT WEATHER SUCH AS PRECIPITATION OR FOG.

ILZ001-002-007-009-015-016-024-262300-
NORTHWEST ILLINOIS

CITY           SKY/WX    TMP DP  RH WIND       PRES   REMARKS
MOLINE         SUNNY     87  65  47 E6        29.99F HX  89
STERLING*      MOSUNNY   86  67  52 E6        30.01F HX  89
SAVANNA*       MOSUNNY   83  64  51 CALM      30.01F HX  84
$$

ILZ003-004-008-010-011-017-018-262300-
NORTH CENTRAL ILLINOIS

CITY           SKY/WX    TMP DP  RH WIND       PRES   REMARKS
ROCKFORD       MOSUNNY   86  66  51 NW5       30.03S HX  88
FREEPORT*      SUNNY     83  63  49 NE3       30.04F HX  84
ROCHELLE*      SUNNY     83  63  50 N3        30.02F HX  84
DE KALB*       PTSUNNY   83  67  58 N7        30.03F HX  86
$$

ILZ005-006-012>014-019>023-262300-
NORTHEAST ILLINOIS

CITY           SKY/WX    TMP DP  RH WIND       PRES   REMARKS
CHICAGO-OHARE  MOSUNNY   87  63  44 N5        30.00F HX  88
CHICAGO-MIDWAY MOSUNNY   86  63  45 E12       30.00S HX  87
AURORA         SUNNY     85  67  54 W6        30.01F HX  87
LANSING*       PTSUNNY   84  64  49 E5        30.00F HX  85
JOLIET*        MOSUNNY   87  69  55 CALM      30.00S HX  91
WAUKEGAN       SUNNY     82  65  56 E7        30.01F HX  84
DUPAGE AIRPORT MOSUNNY   86  64  47 VRB3      30.00F HX  87
KANKAKEE*      SUNNY     85  68  55 S5        30.01F HX  88
WHEELING       SUNNY     84  61  45 VRB6      30.01F HX  84
MORRIS*        SUNNY     84  68  57 CALM      29.99S HX  87
ROMEOVILLE*    PTSUNNY   84  65  52 W5        30.00F HX  85
NORTHERLY ISL    N/A     79  69  71 NE6         N/A  HX  81
$$

LMZ740>746-262300-
SOUTHERN LAKE MICHIGAN

STATION/POSITION SKY/WX   TEMP    WIND        PRES    VSBY  WAVE
                          AIR SEA DIR/SP/G                  HT/PER
                          (F)     (DEG/KT/KT) (MB)    (MI)  (FT/S)
SOUTHERN BUOY              77 76  240/  2/  2 1015.8F         0
WILMETTE HARBOR            77 74  120/  4/  4   N/A           0
HARRISON CRIB              79      80/  8/  8   N/A
BURNHAM HARBOR             80      60/  4/  6   N/A
CALUMET HARBOR             79      40/  8/  9 1015.9F
BURNS HARBOR               78      30/ 10/ 10 1016.9F
MICHIGAN CITY              78     350/ 10/ 10   N/A
MICHIGAN CITY 6N           78 78   40/  6/  6   N/A           1
ST. JOSEPH                 77 77  350/  6/  8 1016.0F         1
$$

ILZ025>027-034>036-040-047-049-050-058-095>099-262300-
WEST-CENTRAL ILLINOIS

CITY           SKY/WX    TMP DP  RH WIND       PRES   REMARKS
QUINCY         MOSUNNY   87  63  44 NE3       29.99F HX  88
GALESBURG*     MOSUNNY   86  67  52 CALM      30.00F HX  88
MACOMB*        SUNNY     84  67  55 CALM      30.02S HX  87
JACKSONVILLE*  SUNNY     86  67  53 SE3       29.99S HX  89
PITTSFIELD*    MOSUNNY   87  71  58 CALM      30.01S HX  92
$$

ILZ028>032-037-038-041>044-048-051>054-059>061-262300-
CENTRAL ILLINOIS

CITY           SKY/WX    TMP DP  RH WIND       PRES   REMARKS
PONTIAC        CLOUDY    85  72  65 CALM      30.01S HX  91
BLOOMINGTON    MOSUNNY   83  69  62 S5        30.02F HX  86
DECATUR        SUNNY     85  69  58 E9        30.01F HX  89
PEORIA         CLOUDY    84  67  56 W6        29.99F HX  86
LACON*         SUNNY     86  65  48 CALM      29.99S HX  87
LINCOLN*       MOSUNNY   83  72  67 SE7       30.00S HX  88
SPRINGFIELD    SUNNY     86  69  56 E8        30.00S HX  90
TAYLORVILLE    MOSUNNY   83  71  66 MISG      30.01R HX  87
$$

ILZ033-039-045-046-055>057-062-063-262300-
EAST-CENTRAL ILLINOIS

CITY           SKY/WX    TMP DP  RH WIND       PRES   REMARKS
CHAMPAIGN      SUNNY     82  69  64 SE7       30.01F HX  85
MATTOON        SUNNY     83  68  60 N6        30.00S HX  86
PARIS*         PTSUNNY   82  69  64 CALM      30.01F HX  85
$$

ILZ079-100>102-262300-
SOUTHWEST ILLINOIS

CITY           SKY/WX    TMP DP  RH WIND       PRES   REMARKS
ALTON          PTSUNNY   84  73  70 NE6       29.98S HX  91
BELLEVILLE     CLOUDY    88  76  67 SE8       29.97R HX  98
CAHOKIA*       PTSUNNY   86  78  77 SW5       29.97R HX  98
SPARTA*        PTSUNNY   80  76  89 S7        30.01R HX  85
$$

ILZ064>066-069>071-074>076-080>082-084>086-088>090-092>094-262300-
SOUTH-CENTRAL ILLINOIS

CITY           SKY/WX    TMP DP  RH WIND       PRES   REMARKS
CARBONDALE     CLOUDY    76  73  91 CALM      30.03R
CAIRO*         MOSUNNY   77  74  90 NW3       29.99S
EFFINGHAM*     MOSUNNY   84  75  72 CALM      30.01S HX  92
MARION         LGT RAIN  77  75  94 SW6       30.02R
MT. VERNON     CLOUDY    84  73  70 MISG      30.00R HX  91
CENTRALIA*     CLOUDY    86  77  74 E3        29.99R HX  98
SALEM*         CLOUDY    87  76  70 CALM      29.99R HX  96
METROPOLIS*    CLOUDY    78  74  90 N3        29.99F
$$

ILZ067-068-072-073-078-083-087-091-262300-
SOUTHEAST ILLINOIS

CITY           SKY/WX    TMP DP  RH WIND       PRES   REMARKS
LAWRENCEVILLE  MOSUNNY   86  73  65 CALM      29.98S HX  93
FLORA*         SUNNY     85  75  71 NE3       29.99S HX  93
FAIRFIELD*     CLOUDY    83  77  81 CALM      29.98R HX  93
HARRISBURG*    RAIN      77  77  99 W6        30.00S
ROBINSON*      MOSUNNY   82  73  73 CALM      29.99S HX  87
CARMI*         CLOUDY    82  78  87 NW3       29.98R HX  92
$$

ABBREVIATIONS USED IN REMARKS
   TC - TEMPERATURE IN CELSIUS
  WCI - WIND CHILL INDEX
   HX - HEAT INDEX
  VSB - VISIBILITY
$$




USA.gov is the U.S. government's official web portal to all federal, state and local government web resources and services.